Chievres, Belgium

11:02 PM CEST on October 18, 2017 (GMT +0200)
Chievres Air Base

Weather History for EBCV - December, 2013

Change the Weather History Date:

Tuesday, December 3, 2013

  Actual Average Record
Temperature  
Mean Temperature 36 °F -  
Max Temperature 43 °F 40 °F 52 °F (2015)
Min Temperature 28 °F 35 °F 14 °F (2010)
Degree Days  
Heating Degree Days 30    
Moisture  
Dew Point 31 °F    
Average Humidity 93    
Maximum Humidity 100    
Minimum Humidity 66    
Precipitation  
Precipitation 0.00 in - - ()
Sea Level Pressure  
Sea Level Pressure 30.40 in    
Wind  
Wind Speed 2 mph ()    
Max Wind Speed 8 mph    
Max Gust Speed -    
Visibility 3.8 miles    
Events      
Averages and records for this station are not official NWS values.
T = Trace of Precipitation, MM = Missing Value Source: Averaged Metar Reports

Daily Weather History Graph

Daily Weather History Graph

Search for Another Location

Airport or City:

Trip Planner

Search our weather history database for the weather conditions in past years. The results will help you decide how hot, cold, wet, or windy it might be!

Date:

Astronomy

Dec. 03, 2013 Rise Set
Actual Time 8:26 AM CET 4:42 PM CET
Civil Twilight 7:48 AM CET 5:20 PM CET
Nautical Twilight 7:06 AM CET 6:01 PM CET
Astronomical Twilight 6:27 AM CET 6:41 PM CET
Moon 8:36 AM CET (12/3) 5:32 PM CET (12/3)
Length of Visible Light 9h 32m
Length of Day
8h 15m
New Moon, 0% of the Moon is Illuminated
Dec 3
New Moon
Dec 9
First Quarter
Dec 17
Full
Dec 25
Last Quarter
Jan 1
New

Hourly Weather History & Observations

Time (CET) Temp. Windchill Dew Point Humidity Pressure Visibility Wind Dir Wind Speed Gust Speed Precip Events Conditions
12:25 AM 32.0 °F - 32.0 °F 100% 30.45 in 3.7 mi Variable 2.3 mph - N/A   Unknown
1:00 AM 31 °F - 31 °F 99% 30.45 in 4 mi 2.2 mph - -   Partly Cloudy
1:09 AM 32.0 °F - 32.0 °F 100% 30.42 in - Variable 1.2 mph - N/A   Scattered Clouds
1:23 AM 32.0 °F - 30.2 °F 93% 30.42 in 3.1 mi Variable 1.2 mph - N/A   Partly Cloudy
1:25 AM 32.0 °F - 32.0 °F 100% 30.42 in 3.1 mi Variable 1.2 mph - N/A   Partly Cloudy
1:36 AM 32.0 °F - 30.2 °F 93% 30.42 in - Variable 1.2 mph - N/A   Partly Cloudy
2:25 AM 30.2 °F - 30.2 °F 100% 30.42 in - Variable 1.2 mph - N/A   Unknown
2:43 AM 30.2 °F - 30.2 °F 100% 30.42 in - Variable 2.3 mph - N/A   Unknown
3:14 AM 30.2 °F - 28.4 °F 93% 30.42 in 3.7 mi Variable 2.3 mph - N/A   Unknown
3:25 AM 30.2 °F - 28.4 °F 93% 30.42 in 3.7 mi Variable 1.2 mph - N/A   Unknown
3:53 AM 30.2 °F - 30.2 °F 100% 30.42 in - Variable 2.3 mph - N/A   Unknown
4:00 AM 30 °F - 29 °F 95% 30.43 in 3 mi 2.2 mph - -  
4:08 AM 30.2 °F - 28.4 °F 93% 30.42 in 3.1 mi Variable 1.2 mph - N/A   Unknown
4:11 AM 30.2 °F - 28.4 °F 93% 30.42 in - Variable 1.2 mph - N/A   Unknown
4:25 AM 30.2 °F - 28.4 °F 93% 30.42 in - Variable 1.2 mph - N/A   Unknown
4:36 AM 30.2 °F - 28.4 °F 93% 30.42 in - Variable 1.2 mph - N/A   Unknown
4:48 AM 30.2 °F 26.7 °F 28.4 °F 93% 30.42 in 3.1 mi Variable 3.5 mph - N/A   Unknown
4:49 AM 30.2 °F 26.7 °F 28.4 °F 93% 30.42 in - Variable 3.5 mph - N/A   Unknown
5:06 AM 30.2 °F - 28.4 °F 93% 30.42 in - Variable 2.3 mph - N/A   Unknown
5:18 AM 28.4 °F - 28.4 °F 100% 30.42 in - Variable 1.2 mph - N/A   Unknown
5:19 AM 30.2 °F - 28.4 °F 93% 30.42 in 2.2 mi Variable 1.2 mph - N/A   Unknown
5:25 AM 30.2 °F - 28.4 °F 93% 30.42 in 1.7 mi Variable 2.3 mph - N/A   Unknown
6:25 AM 28.4 °F - 28.4 °F 100% 30.42 in 2.2 mi Variable 1.2 mph - N/A   Unknown
7:00 AM 29 °F - 28 °F 94% 30.43 in 3 mi 2.2 mph - -   Mist
7:15 AM 28.4 °F - 28.4 °F 100% 30.42 in 3.1 mi Variable 1.2 mph - N/A   Unknown
7:25 AM 28.4 °F - 26.6 °F 93% 30.42 in 3.1 mi Variable 1.2 mph - N/A   Unknown
7:41 AM 28.4 °F - 28.4 °F 100% 30.42 in - Variable 1.2 mph - N/A   Unknown
8:03 AM 28.4 °F - 26.6 °F 93% 30.42 in 3.1 mi Variable 1.2 mph - N/A   Unknown
8:19 AM 28.4 °F - 26.6 °F 93% 30.42 in - Variable 1.2 mph - N/A   Unknown
8:25 AM 28.4 °F - 28.4 °F 100% 30.42 in - Variable 1.2 mph - N/A   Unknown
8:45 AM 28.4 °F - 28.4 °F 100% 30.42 in - Variable 1.2 mph - N/A   Unknown
9:03 AM 28.4 °F - 28.4 °F 100% 30.42 in - Variable 1.2 mph - N/A   Unknown
9:25 AM 30.2 °F - 30.2 °F 100% 30.42 in 3.1 mi Variable 1.2 mph - N/A   Unknown
9:38 AM 32.0 °F - 30.2 °F 93% 30.42 in - Variable 1.2 mph - N/A   Unknown
10:00 AM 32 °F - 32 °F 99% 30.43 in 3 mi 2.2 mph - -   Mist
10:23 AM 35.6 °F - 32.0 °F 87% 30.42 in 5.0 mi Variable 1.2 mph - N/A   Unknown
10:24 AM 35.6 °F - 32.0 °F 87% 30.42 in 4.3 mi Variable 1.2 mph - N/A   Unknown
10:25 AM 35.6 °F - 32.0 °F 87% 30.42 in 3.1 mi Variable 1.2 mph - N/A   Unknown
11:25 AM 35.6 °F 32.8 °F 33.8 °F 93% 30.42 in 4.3 mi Variable 3.5 mph - N/A   Unknown
11:45 AM 37.4 °F - 33.8 °F 87% 30.42 in 6.2 mi Variable 1.2 mph - N/A   Unknown
12:25 PM 41.0 °F - 35.6 °F 81% 30.39 in 6.2 mi Variable 1.2 mph - N/A   Unknown
1:00 PM 42 °F - 35 °F 66% 30.40 in 7 mi 2.2 mph - -  
1:25 PM 41.0 °F - 33.8 °F 76% 30.36 in 6.2 mi Variable 1.2 mph - N/A   Unknown
2:25 PM 41.0 °F 39.0 °F 33.8 °F 76% 30.36 in 6.2 mi WSW 3.5 mph - N/A   Unknown
3:25 PM 39.2 °F 35.0 °F 33.8 °F 81% 30.36 in 6.2 mi WSW 5.8 mph - N/A   Unknown
3:46 PM 39.2 °F 35.9 °F 35.6 °F 87% 30.36 in 4.3 mi SW 4.6 mph - N/A   Unknown
4:00 PM 38 °F - 35 °F 82% 30.38 in 5 mi 2.2 mph - -  
4:25 PM 37.4 °F 34.9 °F 33.8 °F 87% 30.36 in 3.7 mi SW 3.5 mph - N/A   Unknown
5:25 PM 35.6 °F - 33.8 °F 93% 30.36 in 3.7 mi Variable 1.2 mph - N/A   Unknown
5:43 PM 35.6 °F - 32.0 °F 87% 30.36 in - Variable 1.2 mph - N/A   Unknown
5:53 PM 33.8 °F - 32.0 °F 93% 30.36 in - Variable 2.3 mph - N/A   Unknown
6:05 PM 33.8 °F 30.8 °F 32.0 °F 93% 30.36 in - South 3.5 mph - N/A   Unknown
6:06 PM 33.8 °F 30.8 °F 32.0 °F 93% 30.36 in - South 3.5 mph - N/A   Unknown
6:19 PM 33.8 °F 30.8 °F 32.0 °F 93% 30.36 in - South 3.5 mph - N/A   Unknown
6:24 PM 33.8 °F 30.8 °F 32.0 °F 93% 30.36 in - South 3.5 mph - N/A   Unknown
6:25 PM 32.0 °F 28.7 °F 32.0 °F 100% 30.36 in 2.2 mi South 3.5 mph - N/A   Unknown
6:44 PM 32.0 °F 27.5 °F 30.2 °F 93% 30.36 in - South 4.6 mph - N/A   Unknown
7:00 PM 32 °F - 31 °F 95% 30.38 in 2 mi South 4.5 mph - -   Mist
7:12 PM 32.0 °F 27.5 °F 30.2 °F 93% 30.36 in - South 4.6 mph - N/A   Unknown
7:25 PM 32.0 °F 27.5 °F 30.2 °F 93% 30.36 in - South 4.6 mph - N/A   Unknown
8:25 PM 30.2 °F 25.4 °F 30.2 °F 100% 30.36 in - SSW 4.6 mph - N/A   Unknown
9:25 PM 32.0 °F 24.8 °F 30.2 °F 93% 30.33 in - SSW 8.1 mph - N/A   Unknown
10:00 PM 31 °F - 30 °F 96% 30.37 in 2 mi SSW 4.5 mph - -   Mist